Tracking 19489 objects as of 23-Jan-2019
HD Live streaming from Space Station
objects crossing your sky now

FENGYUN 1C DEB

Track FENGYUN 1C DEB now!
10-day predictions


NORAD ID: 31674
Int'l Code: 1999-025CCG
Perigee: 808.0 km
Apogee: 867.2 km
Inclination: 98.9 °
Period: 101.5 minutes
Semi major axis: 7208 km
RCS: 0.0141 m2 (small)
Launch date: May 10, 1999
Source: People's Republic of China (PRC)
Launch site: Taiyaun Space Center, China (TSC)

Note: This is SATELLITE DEBRIS
aabbcc
Your satellite tracking list
Your tracking list is empty




NASA's NSSDC Master Catalog

Two Line Element Set (TLE):
1 31674U 99025CCG 19017.66129724 +.00000885 +00000-0 +44630-3 0  9992
2 31674 098.8788 334.0330 0041078 029.0805 331.2646 14.18489268286609
Source of the keplerian elements: AFSPC